Regional Weather Roundup
Issued by NWS

Home | Current Version | Previous Version | Graphics & Text | Print | Product List | Glossary On
Versions: 1 2 3 4 5 6 7 8 9 10 11 12 13 14 15 16 17 18 19 20 21 22 23 24 25 26 27 28 29 30 31 32 33 34 35 36 37 38 39 40 41 42 43 44 45 46 47 48 49 50
000
ASUS43 KLOT 062108
RWRIL

ILLINOIS REGIONAL WEATHER ROUNDUP
NATIONAL WEATHER SERVICE CHICAGO/ROMEOVILLE IL
300 PM CST TUE DEC 06 2016

NOTE: "FAIR" INDICATES FEW OR NO CLOUDS BELOW 12,000 FEET WITH NO
SIGNIFICANT WEATHER AND/OR OBSTRUCTIONS TO VISIBILITY.

* THESE STATIONS ARE NOT UNDER NWS QUALITY CONTROL. THEY ALSO MAY NOT
  REPORT WEATHER SUCH AS PRECIPITATION OR FOG.

ILZ001-002-007-009-015-016-024-062200-
NORTHWEST ILLINOIS

CITY           SKY/WX    TMP DP  RH WIND       PRES   REMARKS
MOLINE         MOSUNNY   36  25  64 W17       29.88R WCI  26
STERLING*      SUNNY     33  24  69 W18       29.85R WCI  22
SAVANNA*       SUNNY     32  22  65 W14G21    29.85S WCI  22
$$

ILZ003-004-008-010-011-017-018-062200-
NORTH CENTRAL ILLINOIS

CITY           SKY/WX    TMP DP  RH WIND       PRES   REMARKS
ROCKFORD       MOSUNNY   34  25  69 W16       29.82R WCI  24
FREEPORT*      SUNNY     32  21  64 W17G23    29.83R WCI  20
ROCHELLE*      SUNNY     33  26  75 W17       29.83R WCI  22
DE KALB*       MOSUNNY   33  31  92 W17G24    29.81R WCI  22
$$

ILZ005-006-012>014-019>023-062200-
NORTHEAST ILLINOIS

CITY           SKY/WX    TMP DP  RH WIND       PRES   REMARKS
CHICAGO-OHARE  CLOUDY    35  32  88 W16       29.78S WCI  25
CHICAGO-MIDWAY CLOUDY    36  31  82 W8        29.80R WCI  30
AURORA         CLOUDY    35  31  85 W16G25    29.81R WCI  25
LANSING*       CLOUDY    35  33  94 W12       29.82R FOG     WCI  26
JOLIET*        CLOUDY    36  34  94 W8        29.83R FOG     WCI  29
WAUKEGAN       CLOUDY    36  32  85 W7        29.75S WCI  30
DUPAGE AIRPORT CLOUDY    34  31  88 W14       29.79R WCI  25
KANKAKEE*      CLOUDY    34  32  94 W9        29.84R FOG     WCI  26
WHEELING       CLOUDY    35  32  88 W9        29.79R WCI  28
MORRIS*        CLOUDY    34  33  96 W18       29.83R FOG     WCI  23
ROMEOVILLE*    CLOUDY    34  34 100 W10       29.81R FOG     WCI  26
NORTHERLY ISL    N/A     36  32  85 W10         N/A  WCI  28
$$

LMZ740>746-062200-
SOUTHERN LAKE MICHIGAN

STATION/POSITION SKY/WX   TEMP    WIND        PRES    VSBY  WAVE
                          AIR SEA DIR/SP/G                  HT/PER
                          (F)     (DEG/KT/KT) (MB)    (MI)  (FT/S)
HARRISON CRIB              37     280/ 21/ 28   N/A
BURNHAM HARBOR             36     270/ 10/ 18   N/A
CALUMET HARBOR             36     250/  8/ 12 1008.5R
BURNS HARBOR               39     280/ 21/ 25 1008.8R
MICHIGAN CITY              39     240/ 27/ 30   N/A
$$

ILZ025>027-034>036-040-047-049-050-058-095>099-062200-
WEST-CENTRAL ILLINOIS

CITY           SKY/WX    TMP DP  RH WIND       PRES   REMARKS
QUINCY         CLOUDY    40  25  55 W13       29.95R
GALESBURG*     SUNNY     35  27  73 W15       29.90R WCI  26
MACOMB*        SUNNY     38  29  70 W17       29.94R WCI  28
JACKSONVILLE*  MOSUNNY   39  30  68 W14       29.94R WCI  31
PITTSFIELD*    MOSUNNY   40  28  61 W7        29.96R
$$

ILZ028>032-037-038-041>044-048-051>054-059>061-062200-
CENTRAL ILLINOIS

CITY           SKY/WX    TMP DP  RH WIND       PRES   REMARKS
PONTIAC        CLOUDY    37  36  96 W21       29.87R WCI  26
BLOOMINGTON    PTSUNNY   36  30  80 NW18      29.87R WCI  25
DECATUR        CLOUDY    38  34  85 W9G24     29.90R FOG     WCI  31
PEORIA         SUNNY     38  27  64 W12G20    29.90R WCI  30
LACON*         SUNNY     37  28  72 W15       29.87R WCI  28
LINCOLN*       MOSUNNY   39  32  76 W10G18    29.91R WCI  32
SPRINGFIELD    PTSUNNY   41  34  76 NW9G18    29.93R
TAYLORVILLE    CLOUDY    38  33  81 W14       29.93R WCI  30
$$

ILZ033-039-045-046-055>057-062-063-062200-
EAST-CENTRAL ILLINOIS

CITY           SKY/WX    TMP DP  RH WIND       PRES   REMARKS
CHAMPAIGN      CLOUDY    38  34  85 NW18      29.87R WCI  28
RANTOUL*       CLOUDY    39  36  91 W15       29.86R WCI  30
MATTOON        CLOUDY    38  33  82 NW16G26   29.88R WCI  29
PARIS*         CLOUDY    37  33  89 NW13      29.88R WCI  28
$$

ILZ079-100>102-062200-
SOUTHWEST ILLINOIS

CITY           SKY/WX    TMP DP  RH WIND       PRES   REMARKS
ALTON          CLOUDY    39  34  81 NW17      29.96R WCI  30
CAHOKIA*       CLOUDY    42  34  73 W12       29.97R
SPARTA*        CLOUDY    40  35  81 NW12      29.96R
$$

ILZ064>066-069>071-074>076-080>082-084>086-088>090-092>094-062200-
SOUTH-CENTRAL ILLINOIS

CITY           SKY/WX    TMP DP  RH WIND       PRES   REMARKS
CARBONDALE     CLOUDY    42  36  79 NW12G20   29.94R
CAIRO*         MOSUNNY   44  37  77 NW12      29.94R
EFFINGHAM*     CLOUDY    40  37  89 W12       29.93R
MARION         CLOUDY    43  37  81 NW14      29.93R
CENTRALIA*     CLOUDY    41  37  86 NW13G20   29.94R
SALEM*         CLOUDY    41  35  79 NW16      29.93R
METROPOLIS*    MOSUNNY   43  37  77 NW8       29.94R
$$

ILZ067-068-072-073-078-083-087-091-062200-
SOUTHEAST ILLINOIS

CITY           SKY/WX    TMP DP  RH WIND       PRES   REMARKS
LAWRENCEVILLE  CLOUDY    40  34  79 NW16      29.89R
FLORA*         CLOUDY    41  36  82 NW14      29.92R
FAIRFIELD*     CLOUDY    40  35  81 NW6       29.92R
HARRISBURG*    CLOUDY    41  37  84 NW7       29.93R
ROBINSON*      CLOUDY    38  33  82 NW16G28   29.89R WCI  29
CARMI*         CLOUDY    40  36  86 NW18      29.91R
$$

ABBREVIATIONS USED IN REMARKS
   TC - TEMPERATURE IN CELSIUS
  WCI - WIND CHILL INDEX
   HX - HEAT INDEX
  VSB - VISIBILITY
$$





USA.gov is the U.S. government's official web portal to all federal, state and local government web resources and services.